Location: Unspecified
(48.5539°N, 71.6350°W)
Time: 01:37:40
(UTC-05:00)

ISS - Pass Details

Date: 24 January 2019
Orbit: 403 x 411 km, 51.6° (Epoch: 22 February)

Event Time Altitude Azimuth Distance (km) Brightness Sun altitude
Rises 01:10:53 0° 282° (WNW) 2,350 - -57.3°
Reaches altitude 10° 01:13:54 10° 252° (WSW) 1,483 - -57.0°
Maximum altitude 01:15:25 13° 225° (SW) 1,332 - -56.9°
Drops below altitude 10° 01:16:56 10° 198° (SSW) 1,478 - -56.7°
Sets 01:19:56 0° 168° (SSE) 2,334 - -56.4°
